Miscellaneous Local Product
Issued by NWS Hastings, NE

Home | Current Version | Previous Version | Graphics & Text | Print | Product List | Glossary On
Versions: 1 2 3 4 5 6 7 8 9 10 11 12 13 14 15 16 17 18 19 20 21 22 23 24 25 26 27 28 29 30 31 32 33 34 35 36 37 38 39 40 41 42 43 44 45 46 47 48 49 50
000
AXUS43 KGID 151002
MISGRI

GID CWA HOURLY WEATHER ROUNDUP
NATIONAL WEATHER SERVICE HASTINGS NE
500 AM CDT TUE APR 15 2014

NOTE: "FAIR" INDICATES FEW OR NO CLOUDS BELOW 12,000 FEET WITH NO
SIGNIFICANT WEATHER AND/OR OBSTRUCTIONS TO VISIBILITY.

...SOUTH CENTRAL NEBRASKA...

CITY           SKY/WX    TMP DP  RH WIND       PRES   REMARKS
GRAND ISLAND   CLEAR     27  23  85 SW3       30.17R
HASTINGS       CLEAR     25  21  85 CALM      30.15S
ORD            CLEAR     19  14  81 CALM      30.13F
YORK           CLEAR     27  27 100 E3        30.16S
AURORA         CLEAR     26  25  95 SW7       30.17R WCI  19
LEXINGTON      CLEAR     26  20  77 SW5       30.13F WCI  21
HOLDREGE       CLEAR     27  20  75 S3        30.14F
HEBRON         CLEAR     25  23  92 SW5       30.18R WCI  19

...NEBRASKA PANHANDLE...

CITY           SKY/WX    TMP DP  RH WIND       PRES   REMARKS
CHADRON        CLEAR     25  19  78 W7        29.94F WCI  17
ALLIANCE       CLEAR     23  17  78 S8        29.97F WCI  14
SCOTTSBLUFF    CLEAR     22  18  85 E7        29.98F WCI  13
SIDNEY         CLEAR     28  17  63 SW14      30.01F WCI  17

...WESTERN AND NORTH CENTRAL NEBRASKA...

CITY           SKY/WX    TMP DP  RH WIND       PRES   REMARKS
VALENTINE      CLEAR     24  14  65 S9        30.04F WCI  14
AINSWORTH      CLEAR     19  14  80 S7        30.08F WCI  10
ONEILL         CLEAR     17  12  82 CALM      30.12F
BROKEN BOW     CLEAR     18  14  84 CALM      30.11F
IMPERIAL       CLEAR     27  19  72 SW10      30.08F WCI  17
NORTH PLATTE   CLEAR     19  13  77 SE5       30.09F WCI  12
MCCOOK         CLEAR     26  23  88 SW6       30.13F WCI  19

...EASTERN NEBRASKA...

CITY           SKY/WX    TMP DP  RH WIND       PRES   REMARKS
NORFOLK        CLEAR     21  16  81 CALM      30.16S
SO SIOUX CITY  CLEAR     19  15  84 CALM      30.21R
TEKAMAH        CLEAR     22  16  78 NW3       30.20R
COLUMBUS       CLEAR     21  18  86 CALM      30.17S
ALBION         PTCLDY    22  18  82 W5        30.15R WCI  16
OMAHA EPPLEY   CLEAR     25  20  81 N6        30.19S WCI  18
OFFUTT AFB     CLEAR     24  21  89 N2        30.19R
MILLARD        CLEAR     28  20  72 CALM      30.19S
LINCOLN        CLEAR     25  20  81 W3        30.20S
NEBRASKA CITY  CLEAR     28  22  79 NW6       30.18S WCI  22
BEATRICE       FOG       21  19  93 CALM      30.18S VSB 1/2
FALLS CITY     CLEAR     26  23  88 CALM      30.18F

...NORTHERN KANSAS...

CITY           SKY/WX    TMP DP  RH WIND       PRES   REMARKS
GOODLAND       CLEAR     28  16  60 SW12      30.12F WCI  18
HILL CITY      CLEAR     23  19  85 W3        30.17F
PHILLIPSBURG   CLEAR     19  18  93 NW5       30.17F WCI  13
SMITH CENTER   CLEAR     19  16  86 CALM      30.18F
BELOIT         CLEAR     23  18  80 N3        30.18F
HAYS           CLEAR     23  14  68 W7        30.17F WCI  15
RUSSELL        CLEAR     19  13  77 SW7       30.16F WCI  10
CONCORDIA      CLEAR     27  22  81 W6        30.18S WCI  20
SALINA         CLEAR     29  19  66 W5        30.20S WCI  24
TOPEKA         CLEAR     30  25  81 CALM      30.20S



USA.gov is the U.S. government's official web portal to all federal, state and local government web resources and services.